Location: Marcé
(47.5801°N, 0.3280°W)
Time: 21:51:52
(UTC+01:00)

Transit 2A - Pass Details

Date: 07 December 2021
Orbit: 591 x 967 km, 66.7° (Epoch: 23 January)

Event Time Altitude Azimuth Distance (km) Brightness Sun altitude
Rises 01:19:23 0° 231° (SW) 3,345 - -64.5°
Reaches altitude 10° 01:21:48 10° 236° (SW) 2,470 - -64.4°
Maximum altitude 01:27:26 52° 312° (NW) 1,116 - -64.1°
Drops below altitude 10° 01:33:33 10° 29° (NNE) 2,677 - -63.7°
Sets 01:36:16 0° 34° (NE) 3,648 - -63.5°
